DW6005 Murcia ES current weather conditions

sailwx.info

Wind from 234

Air temperature 22.2° C
Dewpoint 19.9° C

Last reported at 2019-Sep-22 01:00 UTC.
Time now 2019-Sep-22 01:56 UTC

Location: N 38°03' W 001°06'.
View on Google Maps.

See reports from other nearby stations

  
Tides and Currents Weather Stations Pressure Air Temp Water Temp Dewpoint Dewpoint Depression Visibility Wind Speed Wind Dir Waves Ship Positions
date/time (UTC)wind fromknots sea level pressurealtimeterstation pressurevisibilityair tempwater tempwave heightnotes
2019-Sep-22 01:00 234 22.2
2019-Sep-22 00:46 234 22.8
2019-Sep-22 00:31 234 22.8
2019-Sep-22 00:15 234 22.8
2019-Sep-22 00:01 234 22.8
2019-Sep-21 23:46 234 22.8
2019-Sep-21 23:31 234 22.8
2019-Sep-21 23:16 234 23.3
2019-Sep-21 23:00 234 23.3
2019-Sep-21 22:45 234 23.3
2019-Sep-21 22:30 234 23.3
2019-Sep-21 22:15 234 23.3
2019-Sep-21 22:00 234 23.3
2019-Sep-21 21:45 234 23.3
2019-Sep-21 21:30 234 23.3
2019-Sep-21 21:15 234 23.9
2019-Sep-21 21:00 234 23.9
2019-Sep-21 20:45 234 23.9
2019-Sep-21 20:30 234 23.9
2019-Sep-21 20:15 234 23.9
2019-Sep-21 20:01 234 23.9
2019-Sep-21 19:45 234 23.9
2019-Sep-21 19:30 234 24.4
2019-Sep-21 19:15 234 24.4
2019-Sep-21 19:00 234 24.4
2019-Sep-21 18:45 217 1 gusting 6 24.4
2019-Sep-21 18:30 042 1 gusting 3 25.6
2019-Sep-21 18:15 136 25.6
2019-Sep-21 18:00 136 26.1
2019-Sep-21 17:45 136 26.1
2019-Sep-21 17:30 136 26.7
2019-Sep-21 17:15 136 26.7
2019-Sep-21 17:00 136 27.2
2019-Sep-21 16:45 136 27.2
2019-Sep-21 16:16 109 27.8
2019-Sep-21 16:01 108 0 gusting 5 27.8
2019-Sep-21 15:46 150 27.8
2019-Sep-21 15:31 164 27.8
2019-Sep-21 15:17 163 0 gusting 5 27.8
2019-Sep-21 15:01 219 0 gusting 4 27.8
2019-Sep-21 14:46 187 27.8
2019-Sep-21 14:31 185 27.8
2019-Sep-21 14:16 184 27.8
2019-Sep-21 14:01 157 27.8
2019-Sep-21 13:46 249 27.8
2019-Sep-21 13:31 281 27.8
2019-Sep-21 13:16 194 0 gusting 6 27.8
2019-Sep-21 13:02 203 0 gusting 5 27.8
2019-Sep-21 12:46 213 27.8
2019-Sep-21 12:31 209 0 gusting 4 27.8
2019-Sep-21 12:17 209 0 gusting 4 27.8
2019-Sep-21 12:00 161 27.8
2019-Sep-21 11:46 188 27.8
2019-Sep-21 11:31 166 27.8
2019-Sep-21 11:16 202 1 gusting 5 27.2
2019-Sep-21 11:01 215 27.2
2019-Sep-21 10:45 213 2 gusting 6 27.2
2019-Sep-21 10:30 144 27.2
2019-Sep-21 10:16 267 26.7
2019-Sep-21 10:00 218 1 gusting 4 25.6
2019-Sep-21 09:45 236 2 gusting 6 25.0
2019-Sep-21 09:30 254 0 gusting 4 25.0
2019-Sep-21 09:15 242 0 gusting 6 25.0
2019-Sep-21 09:00 285 1 gusting 6 24.4
2019-Sep-21 08:45 226 0 gusting 3 24.4
2019-Sep-21 08:32 225 23.9
2019-Sep-21 08:30 225 23.9
2019-Sep-21 08:17 198 0 gusting 5 23.3
2019-Sep-21 08:02 213 23.3
2019-Sep-21 07:46 217 23.3
2019-Sep-21 07:31 255 1 gusting 4 22.8
2019-Sep-21 07:16 265 0 gusting 5 22.2
2019-Sep-21 07:01 237 22.2
2019-Sep-21 06:46 230 21.7
2019-Sep-21 06:31 257 21.7
2019-Sep-21 06:15 257 21.7
2019-Sep-21 06:01 263 21.7
2019-Sep-21 05:46 264 21.7
2019-Sep-21 05:31 264 21.7
2019-Sep-21 05:16 264 21.7
2019-Sep-21 05:00 263 21.7
2019-Sep-21 04:45 282 21.7
2019-Sep-21 04:31 360 21.7
2019-Sep-21 04:15 360 21.7
2019-Sep-21 04:00 360 21.7
2019-Sep-21 03:45 360 21.7
2019-Sep-21 03:30 360 21.7
2019-Sep-21 03:15 360 21.7
2019-Sep-21 03:01 360 21.7
2019-Sep-21 02:46 360 21.7
2019-Sep-21 02:31 360 21.7
2019-Sep-21 02:15 360 21.7
2019-Sep-21 02:00 360 21.7
2019-Sep-21 01:45 360 22.2
2019-Sep-21 01:30 360 22.2
2019-Sep-21 01:15 360 22.2
2019-Sep-21 01:00 005 22.2
2019-Sep-21 00:45 346 0 gusting 3 22.2
2019-Sep-21 00:30 279 22.2
2019-Sep-21 00:00 029 22.8
2019-Sep-20 23:45 029 22.8
2019-Sep-20 23:01 029 22.8
2019-Sep-20 22:46 029 0 gusting 4 22.8
2019-Sep-20 22:31 049 0 gusting 3 22.2
2019-Sep-20 22:17 039 22.2
2019-Sep-20 22:01 039 22.2
2019-Sep-20 21:46 038 22.2
2019-Sep-20 21:31 044 22.2
2019-Sep-20 21:16 060 0 gusting 5 22.8
2019-Sep-20 21:01 071 1 gusting 6 22.8
2019-Sep-20 20:46 070 4 gusting 9 22.8
2019-Sep-20 20:31 057 2 gusting 9 22.8
2019-Sep-20 20:16 057 3 gusting 9 23.3
2019-Sep-20 20:01 062 4 gusting 8 23.3
2019-Sep-20 19:46 061 5 gusting 10 23.3
2019-Sep-20 19:31 051 2 gusting 8 23.3
2019-Sep-20 19:16 072 1 gusting 6 23.3
2019-Sep-20 19:00 036 23.3
2019-Sep-20 18:46 062 1 gusting 4 23.3
2019-Sep-20 18:31 059 1 gusting 6 23.3
2019-Sep-20 18:15 037 0 gusting 4 23.3
2019-Sep-20 18:02 030 2 gusting 5 23.9
2019-Sep-20 17:46 049 1 gusting 5 23.9
2019-Sep-20 17:31 061 3 gusting 7 23.9
2019-Sep-20 17:15 049 2 gusting 8 23.9
2019-Sep-20 17:01 069 3 gusting 8 24.4
2019-Sep-20 16:45 063 3 gusting 7 24.4
2019-Sep-20 16:31 063 3 gusting 10 24.4
2019-Sep-20 16:16 063 3 gusting 12 24.4
2019-Sep-20 16:01 074 4 gusting 11 24.4
2019-Sep-20 15:45 046 6 gusting 11 24.4
2019-Sep-20 15:31 043 2 gusting 12 25.0
2019-Sep-20 15:15 084 6 gusting 12 25.0
2019-Sep-20 15:00 049 7 gusting 13 25.0
2019-Sep-20 14:45 034 6 gusting 11 25.0
2019-Sep-20 14:31 058 3 gusting 13 25.0
2019-Sep-20 14:15 066 7 gusting 12 25.0
2019-Sep-20 14:00 070 6 gusting 10 25.0
2019-Sep-20 13:45 059 7 gusting 14 25.0
2019-Sep-20 13:30 071 6 gusting 13 25.6
2019-Sep-20 13:15 065 4 gusting 10 25.0
2019-Sep-20 13:00 046 7 gusting 13 25.6
2019-Sep-20 12:45 046 8 gusting 14 25.6
2019-Sep-20 12:30 018 6 gusting 12 25.6
2019-Sep-20 12:16 082 6 gusting 12 25.6
2019-Sep-20 12:00 077 6 gusting 13 25.6
2019-Sep-20 11:45 092 5 gusting 12 25.0
2019-Sep-20 11:30 061 7 gusting 11 25.0
2019-Sep-20 11:15 075 5 gusting 9 25.0
2019-Sep-20 11:00 065 6 gusting 11 25.0
2019-Sep-20 10:45 063 5 gusting 11 25.0
2019-Sep-20 10:30 070 6 gusting 11 25.0
2019-Sep-20 10:17 060 5 gusting 9 25.0
2019-Sep-20 10:02 057 5 gusting 10 25.0
2019-Sep-20 09:47 092 3 gusting 8 25.0
2019-Sep-20 09:31 042 5 gusting 11 24.4
2019-Sep-20 09:16 032 3 gusting 7 24.4
2019-Sep-20 09:02 040 2 gusting 5 23.9
2019-Sep-20 08:46 040 0 gusting 4 23.9
2019-Sep-20 08:31 347 23.3
2019-Sep-20 08:16 347 22.8
2019-Sep-20 08:01 347 22.8
2019-Sep-20 07:45 347 22.2
2019-Sep-20 07:30 347 22.2
2019-Sep-20 07:15 347 22.2
2019-Sep-20 07:01 355 0 gusting 3 21.7
2019-Sep-20 06:45 360 21.7
2019-Sep-20 06:30 360 21.1
2019-Sep-20 06:16 330 21.1
2019-Sep-20 06:00 355 21.1
2019-Sep-20 05:45 355 21.1
2019-Sep-20 05:30 355 21.7
2019-Sep-20 05:15 355 21.7
2019-Sep-20 05:00 009 21.7
2019-Sep-20 04:45 009 21.7
2019-Sep-20 04:30 009 21.7
2019-Sep-20 04:15 009 21.7
2019-Sep-20 04:00 009 21.7
2019-Sep-20 03:45 009 21.7
2019-Sep-20 03:30 009 21.7
2019-Sep-20 03:15 009 21.7
2019-Sep-20 03:00 009 21.1
2019-Sep-20 02:45 009 21.7
2019-Sep-20 02:30 009 21.7
2019-Sep-20 02:15 009 21.7
2019-Sep-20 02:00 009 21.7
2019-Sep-20 01:48 009 21.7
2019-Sep-20 01:33 009 21.7
2019-Sep-20 01:17 009 21.7
2019-Sep-20 01:01 009 21.7